This is the latest recevied weather packets stored in our database for station/object KD8BMB. If no packets are shown the sender has not sent any weather packets the latest 1 day(s).
| Time | Temp. | Humidity | Pressure | Rain* | Wind** | Luminosity | Snow |
|---|---|---|---|---|---|---|---|
| 1778024474 | 11.67° C | 49% | 1006.8 hPa | 0 mm | 0.89 m/s, 307° | 26 W/m² | - |
| 1778024171 | 11.67° C | 48% | 1006.8 hPa | 0 mm | 0.89 m/s, 323° | 31 W/m² | - |
| 1778023869 | 11.67° C | 47% | 1006.6 hPa | 0 mm | 0.89 m/s, 248° | 32 W/m² | - |
| 1778023566 | 12.22° C | 46% | 1006.5 hPa | 0 mm | 3.13 m/s, 335° | 36 W/m² | - |
| 1778023264 | 12.22° C | 46% | 1006.8 hPa | 0 mm | 2.68 m/s, 205° | 45 W/m² | - |
| 1778022960 | 12.22° C | 45% | 1006.7 hPa | 0 mm | 1.34 m/s, 227° | 40 W/m² | - |
| 1778022659 | 12.22° C | 45% | 1006.7 hPa | 0 mm | 2.24 m/s, 233° | 48 W/m² | - |
| 1778022356 | 12.22° C | 44% | 1006.6 hPa | 0 mm | 3.13 m/s, 269° | 47 W/m² | - |
| 1778022052 | 12.78° C | 43% | 1006.4 hPa | 0 mm | 2.24 m/s, 261° | 52 W/m² | - |
| 1778021749 | 12.78° C | 43% | 1006.6 hPa | 0 mm | 1.34 m/s, 271° | 57 W/m² | - |
| 1778021445 | 12.78° C | 43% | 1006.7 hPa | 0 mm | 0.45 m/s, 291° | 61 W/m² | - |
| 1778021143 | 12.78° C | 43% | 1006.6 hPa | 0 mm | 1.34 m/s, 289° | 64 W/m² | - |
| 1778020840 | 12.78° C | 42% | 1006.7 hPa | 0 mm | 1.34 m/s, 277° | 71 W/m² | - |
| 1778020537 | 12.78° C | 42% | 1006.8 hPa | 0 mm | 1.34 m/s, 209° | 73 W/m² | - |
| 1778020233 | 12.78° C | 41% | 1007 hPa | 0 mm | 4.02 m/s, 276° | 77 W/m² | - |
| 1778019929 | 13.33° C | 41% | 1006.7 hPa | 0 mm | 4.47 m/s, 324° | 86 W/m² | - |
| 1778019626 | 13.33° C | 43% | 1006.7 hPa | 0 mm | 0.45 m/s, 238° | 95 W/m² | - |
| 1778019323 | 13.33° C | 42% | 1006.6 hPa | 0 mm | 1.34 m/s, 311° | 102 W/m² | - |
| 1778019019 | 13.33° C | 43% | 1006.5 hPa | 0 mm | 2.24 m/s, 249° | 105 W/m² | - |
| 1778018717 | 13.33° C | 42% | 1006.7 hPa | 0 mm | 1.34 m/s, 265° | 117 W/m² | - |
| 1778018414 | 13.33° C | 41% | 1006.8 hPa | 0 mm | 3.13 m/s, 256° | 127 W/m² | - |
| 1778018126 | 13.33° C | 42% | 1006.7 hPa | 0 mm | 4.92 m/s, 243° | 136 W/m² | - |
| 1778017810 | 13.89° C | 42% | 1006.5 hPa | 0 mm | 1.34 m/s, 249° | 135 W/m² | - |
| 1778017508 | 13.89° C | 43% | 1006.7 hPa | 0 mm | 0.89 m/s, 206° | 143 W/m² | - |
| 1778017204 | 13.33° C | 42% | 1006.7 hPa | 0 mm | 2.24 m/s, 319° | 144 W/m² | - |
* Rain latest hour (hover to see other rain measurements)
** Current wind speed in m/s (hover to see current wind gust speed)